Regional Weather Roundup
Issued by NWS Sioux Falls, SD

Home | Current Version | Previous Version | Text Only | Print | Product List | Glossary Off
Versions: 1 2 3 4 5 6 7 8 9 10 11 12 13 14 15 16 17 18 19 20 21 22 23 24 25 26 27 28 29 30 31 32 33 34 35 36 37 38 39 40 41 42 43 44 45 46 47 48 49 50

000
ASUS43 KFSD 241102
RWRFSD

WEATHER ROUNDUP FOR SE SOUTH DAKOTA/SW MINNESOTA/NW IOWA
NATIONAL WEATHER SERVICE SIOUX FALLS SD
600 AM CDT WED MAY 24 2017

NOTE: "FAIR" INDICATES FEW OR NO CLOUDS BELOW 12,000 FEET WITH NO
SIGNIFICANT WEATHER AND OR OBSTRUCTIONS TO VISIBILITY.


SDZ038>040-050-052>070-241200-
SOUTHEAST SOUTH DAKOTA

CITY           SKY/WX    TMP DP  RH WIND       PRES   REMARKS
BROOKINGS      CLOUDY    42  41  96 CALM      29.82F
CHAMBERLAIN    CLEAR     38  38 100 CALM      29.85F
HURON          PTCLDY    33  33 100 NW3       29.85F FOG
MADISON        FAIR      39  39 100 N7        29.82F
MITCHELL       CLEAR     39  38  96 NW6       29.85S
SIOUX FALLS    MOCLDY    45  45 100 N8        29.82S
WINNER         FAIR      38  36  92 SW6       29.86F
YANKTON        CLEAR     42  40  92 NW7       29.83S
$$

MNZ071-072-080-081-089-090-097-098-241200-
SOUTHWEST MINNESOTA

CITY           SKY/WX    TMP DP  RH WIND       PRES   REMARKS
FAIRMONT       CLEAR     45  43  93 N10       29.77S
JACKSON        CLEAR     43  41  93 CALM      29.78S
LUVERNE        CLOUDY    45  43  93 N7        29.81S
MARSHALL       MOCLDY    43  42  97 NW8       29.83R
MONTEVIDEO     CLOUDY    45  45 100 N5        29.83R
PIPESTONE      CLOUDY    46  43  87 N6        29.81S
REDWOOD FALLS  PTCLDY    46  43  89 NW6       29.80S
TRACY          CLOUDY    46  46 100 NW8       29.82S
WINDOM         PTCLDY    45  45 100 N9        29.79R
WORTHINGTON    CLOUDY    43  43 100 N9        29.80S
$$

IAZ001>003-012>014-020>022-031-032-NEZ013-014-SDZ071-241200-
NORTHWEST IOWA

CITY           SKY/WX    TMP DP  RH WIND       PRES   REMARKS
CHEROKEE       CLEAR     43  43 100 N6        29.77S
DENISON          N/A     45  45 100 N5        29.77S
ESTHERVILLE    CLEAR     44  44 100 N12       29.76S
LE MARS        CLEAR     45  45 100 N6        29.80F
ORANGE CITY    CLEAR     45  45 100 N8        29.79S
SHELDON        CLEAR     43  41  93 NW9         N/A
SIOUX CITY     CLEAR     45  45 100 NW9       29.80S
SPENCER        CLEAR     45  44  97 N9        29.77S
STORM LAKE     CLEAR     45  43  93 N12       29.76S
$$

ABBREVIATIONS USED IN REMARKS
   TC - TEMPERATURE IN CELSIUS
  WCI - WIND CHILL INDEX
   HX - HEAT INDEX
  VSB - VISIBILITY




USA.gov is the U.S. government's official web portal to all federal, state and local government web resources and services.